THORAD AGENA D DEB, 5390

Orbit data source: Space-Track

THORAD AGENA D DEB, 5390 is space debris in SSO originally from a launch on Wed, 08 Apr 1970 UTC launched from the Air Force Western Test Range (AFWTR). Debris objects in space refer to the collection of defunct objects orbiting the Earth. Examples of debris include non-operational satellites, rocket bodies, and fragments generated from explosions, collisions, or faulty payload assembly.

Loading next visibility...
Identifier
5390, 1970-025KV
Orbit
SSO
Country
Flag of USUS
Related business
Manufacturer
Unknown
Mission
Spacecraft
Bus & Motor
Unknown
Mass
Unknown
Launch date (UTC)
1970-04-08 (56 years ago)
Launch vehicle
Unknown
Launch site
Air Force Western Test Range (AFWTR)
Object type
Payload
Rocket body
Debris
Shape & HBR
Unknown shape, 0.1 m
Radar Cross Section
Small (<0.1 m²)

Expand to show TLE details & history
Last TLE update: 9 hours ago

TLE from 9 hours ago
0 THORAD AGENA D DEB
1  5390U 70025KV  25308.04775463  .00001176  00000-0  10419-2 0  9997
2  5390 100.1054 333.9421 0050741 185.9436 230.0232 13.86770456777996
Epoch: 2025-11-04T01:08Z
TLE epoch observation values (Epoch: 2025-11-04T01:08:46.000Z)
Latitude
54.34883°
Longitude
-101.1007°
Altitude
972.805 km
Speed
7.358 km/s
True Right ascension
21h 18m 31s
True Declination
54° 11' 26"
Sunlit
Object was in daylight at epoch
Visualization orbit readout
Latitude
Unknown
Longitude
Unknown
Altitude
Unknown
Speed
Unknown
Apparent Right ascension
Unknown
Apparent Declination
Unknown
Sunlit
N/A
Visualization observer readout
Local Sidereal Time
06:17:54
Azimuth
Unknown
Elevation
Unknown
Doppler factor
Unknown
Orbital elements
Apogee altitude
974.364 km
Perigee altitude
900.126 km
Semi-major axis
7,315.382 km
Eccentricity
0.00507
Inclination
100.1054°
RAAN
333.9421°
Arg. of periapsis
185.9436°
True anomaly
229.57945°
Mean anomaly
230.0232°
Eccentric anomaly
229.80114°
Mean motion
3.46887 °/min
Orbital period
103.78 mins
BSTAR
0.0010419
Loading maneuver chart data...
Computing Atmospheric mass density...

Documentation

Showing up to 5 results
|